[[{"header":{"parameterUnit":"m.s-1","parameterCategory":1,"la1":30.2991,"la2":30.254,"lo1":-89.0895,"lo2":-89.0444,"dy":0.0017,"dx":0.0017,"nx":28,"ny":28,"refTime":"2025-05-19T03:00:00:Z","depth":0,"parameterNumber":2,"parameterNumberName":"U-component_of_WINDS"},"data":[0,0,0,0,0,0,0,0,0,0,0,0,0,0,0,0,0,0,0,0,0,0,0,0,0,0,0,0,0,0,0,0,0,0,0,0,0,0,0,0,0,0,0,0,0,0,0,0,0,0,0,0,0,0,0,0,0,0,1.3741,1.3741,0,1.3757,1.3757,1.3757,1.3738,1.3738,1.3737,1.3736,1.3753,1.3754,1.3755,0,0,0,0,0,0,0,0,0,0,0,0,0,1.3695,1.3696,1.3741,1.3741,1.3741,1.3757,1.3757,1.3757,1.3738,1.3738,1.3737,1.3736,1.3753,1.3754,1.3756,0,0,0,0,0,0,0,0,0,0,0,0,0,1.3713,1.3696,1.3741,1.3734,1.3733,1.3757,1.3757,1.3757,1.3739,1.3738,1.3737,1.3736,1.3752,1.3754,1.3756,1.3787,0,0,1.3761,1.3762,0,0,0,0,0,0,0,0,1.3712,1.3715,1.3734,1.3734,1.3734,1.3744,1.3747,1.3767,1.3739,1.3737,1.3736,1.3735,1.3751,1.3753,1.3758,1.3788,1.3789,1.3761,1.3762,1.3763,1.3763,0,0,0,0,0,0,0,1.3711,1.3714,1.3747,1.3735,1.3734,1.373,1.3731,1.3751,1.375,1.3737,1.3735,1.3737,1.3751,1.3757,1.3759,1.3789,1.3761,1.3762,1.3763,1.3764,1.3846,1.3847,0,0,0,0,0,0,1.371,1.3713,1.3746,1.3747,1.372,1.3732,1.3733,1.3742,1.3749,1.3749,1.3738,1.3737,1.3754,1.3757,1.3759,1.3797,1.3763,1.3764,1.3765,1.3845,1.3846,1.3848,0,0,0,0,0,0,1.371,1.3714,1.3746,1.373,1.3734,1.3734,1.3744,1.3743,1.3749,1.3751,1.375,1.3745,1.3754,1.3757,1.378,1.3797,1.3765,1.3766,1.3844,1.3845,1.3847,1.3872,0,0,0,0,0,0,1.3708,1.3713,1.3725,1.373,1.3735,1.3767,1.3745,1.3744,1.3752,1.3749,1.3756,1.3756,1.3753,1.3778,1.3782,1.3799,1.3768,1.3842,1.3844,1.3846,1.387,1.3875,1.3879,0,0,0,0,0,1.3707,1.3731,1.3726,1.373,1.3749,1.3768,1.377,1.3765,1.3753,1.3765,1.3766,1.3756,1.3795,1.3781,1.3785,1.3803,1.3841,1.3844,1.3846,1.3868,1.3874,1.3879,0,0,0,0,0,0,1.3727,1.3732,1.3725,1.3752,1.376,1.3764,1.3779,1.3772,1.3783,1.378,1.3774,1.3776,1.3801,1.3804,1.3789,1.3834,1.3816,1.382,1.3831,1.3836,1.3841,1.3839,1.3769,0,0,0,0,0,1.3735,1.375,1.3753,1.3776,1.378,1.3779,1.3787,1.3783,1.379,1.3793,1.3796,1.3804,1.3818,1.3827,1.384,1.387,1.3872,1.3885,1.3889,1.3893,1.3896,1.3913,1.3919,1.3856,1.3856,1.3856,0,0,1.3751,1.3755,1.3765,1.378,1.3786,1.3801,1.3782,1.3799,1.381,1.3796,1.3819,1.3821,1.383,1.3857,1.3869,1.386,1.3914,1.3896,1.3899,1.39,1.3916,1.3922,1.3927,1.3858,1.3858,1.3858,0,0,1.3788,1.3793,1.3813,1.3819,1.3827,1.3827,1.3832,1.3838,1.3839,1.3862,1.3852,1.3865,1.3889,1.3896,1.3903,1.3944,1.3935,1.3948,1.3971,1.3988,1.3993,1.3997,1.4012,1.4018,1.3951,1.3951,1.3951,0,1.3807,1.383,1.3825,1.3843,1.385,1.3838,1.3859,1.3865,1.3878,1.3883,1.3873,1.3904,1.3908,1.3937,1.3948,1.3953,1.3959,1.3947,1.3992,1.3997,1.4001,1.4015,1.4021,1.3953,1.3953,1.3953,1.3952,0,1.3853,1.3869,1.3885,1.3897,1.3906,1.3926,1.3924,1.3934,1.393,1.3931,1.3954,1.396,1.3974,1.3981,1.3976,1.4009,1.4004,1.3993,1.3975,1.4008,1.4022,1.4027,1.3955,1.3955,1.3954,1.3954,0,0,1.3902,1.3913,1.3918,1.3924,1.3933,1.3946,1.3965,1.3979,1.3989,1.3998,1.4014,1.4035,1.4026,1.4033,1.403,1.4044,1.4077,1.4032,1.4032,1.404,1.4115,1.4123,1.4129,1.4072,1.4073,1.4074,1.4114,0,1.394,1.3973,1.397,1.4002,1.4017,1.4007,1.4024,1.4032,1.4033,1.4047,1.4048,1.4063,1.4049,1.4054,1.4068,1.407,1.4092,1.4067,1.4087,1.4088,1.4086,1.4136,1.4145,1.4183,1.412,1.412,1.4121,0,1.3988,1.3999,1.4033,1.4041,1.4047,1.4062,1.4076,1.4088,1.4097,1.4097,1.4106,1.4101,1.4121,1.4102,1.413,1.4114,1.4122,1.4124,1.4126,1.4127,1.4107,1.414,1.4195,1.4201,1.4129,1.4129,1.4128,0,1.4021,1.4045,1.4069,1.4074,1.4083,1.4095,1.4099,1.4107,1.4116,1.4128,1.4133,1.4147,1.4155,1.4166,1.4164,1.4151,1.4193,1.4174,1.4194,1.4194,1.4203,1.4203,1.4261,1.4208,1.4208,1.4208,1.4208,0,1.4064,1.4085,1.4084,1.4098,1.4122,1.4118,1.4142,1.4145,1.4153,1.4168,1.416,1.4174,1.4171,1.4186,1.4184,1.4208,1.4212,1.4213,1.4212,1.4213,1.4213,1.4219,1.4216,1.421,1.4209,1.4209,1.4209,0,1.4105,1.4105,1.413,1.4137,1.414,1.4157,1.4163,1.4177,1.4178,1.4198,1.4202,1.4204,1.4221,1.4221,1.424,1.4239,1.4268,1.4265,1.4265,1.4265,1.4284,1.4283,1.4348,1.4357,1.4298,1.4299,1.4299,0,1.4132,1.4148,1.4157,1.4167,1.4172,1.4188,1.4198,1.4195,1.4205,1.4217,1.423,1.4246,1.4259,1.4286,1.429,1.4304,1.4301,1.4323,1.4303,1.4304,1.4302,1.4301,1.4303,1.4327,1.4328,1.4328,1.4329,0,1.418,1.4179,1.4193,1.4208,1.4219,1.423,1.424,1.4249,1.4248,1.426,1.4277,1.4287,1.4307,1.4323,1.4338,1.4343,1.4336,1.4335,1.434,1.4342,1.4342,1.4343,1.4276,1.4333,1.4333,1.4332,1.4332,1.4332,1.4215,1.4229,1.4238,1.4254,1.4262,1.4272,1.4286,1.4289,1.4304,1.432,1.4317,1.4337,1.4346,1.4365,1.4372,1.4387,1.4379,1.4387,1.4389,1.4391,1.4393,1.4339,1.439,1.4389,1.4389,1.4389,1.4389,0,1.4263,1.4269,1.4284,1.4298,1.4311,1.4304,1.4315,1.4327,1.4344,1.4353,1.4366,1.4387,1.4403,1.4408,1.4424,1.4435,1.4433,1.444,1.4439,1.444,1.4399,1.4393,1.4442,1.4442,1.4442,1.4442,1.4441,1.4441,1.4289,1.4314,1.4315,1.4343,1.4348,1.4368,1.4375,1.4384,1.4392,1.4415,1.4429,1.4432,1.444,1.4456,1.4471,1.4472,1.4478,1.4487,1.4486,1.4448,1.4443,1.4438,1.4432,1.4488,1.4488,1.4526,1.4526,1.4527]},{"header":{"parameterUnit":"m.s-1","parameterCategory":1,"la1":30.2991,"la2":30.254,"lo1":-89.0895,"lo2":-89.0444,"dy":0.0017,"dx":0.0017,"nx":28,"ny":28,"refTime":"2025-05-19T03:00:00:Z","depth":0,"parameterNumber":3,"parameterNumberName":"V-component_of_WINDS"},"data":[0,0,0,0,0,0,0,0,0,0,0,0,0,0,0,0,0,0,0,0,0,0,0,0,0,0,0,0,0,0,0,0,0,0,0,0,0,0,0,0,0,0,0,0,0,0,0,0,0,0,0,0,0,0,0,0,0,0,6.561,6.5611,0,6.5676,6.5677,6.5678,6.5664,6.5663,6.5662,6.566,6.572,6.5722,6.5725,0,0,0,0,0,0,0,0,0,0,0,0,0,6.5466,6.5468,6.561,6.5611,6.5612,6.5676,6.5677,6.5678,6.5664,6.5663,6.5661,6.566,6.5719,6.5722,6.5725,0,0,0,0,0,0,0,0,0,0,0,0,0,6.553,6.5469,6.561,6.5613,6.5614,6.5676,6.5677,6.5678,6.5665,6.5663,6.5661,6.5659,6.5718,6.5722,6.5726,6.5786,0,0,6.5738,6.574,0,0,0,0,0,0,0,0,6.5526,6.5535,6.5612,6.5613,6.5614,6.566,6.5648,6.5714,6.5665,6.5645,6.566,6.5658,6.5701,6.5706,6.5722,6.5789,6.5791,6.5738,6.5741,6.5742,6.5744,0,0,0,0,0,0,0,6.5522,6.5532,6.5636,6.5613,6.5614,6.5609,6.5616,6.566,6.5682,6.5647,6.5646,6.5654,6.5701,6.5718,6.5723,6.5792,6.5738,6.5742,6.5744,6.5746,6.5914,6.5916,0,0,0,0,0,0,6.5517,6.5528,6.5634,6.5638,6.5565,6.5613,6.5621,6.5647,6.5681,6.5685,6.5656,6.5653,6.5712,6.5719,6.5725,6.58,6.5742,6.5746,6.5748,6.5912,6.5914,6.5916,0,0,0,0,0,0,6.5514,6.5527,6.5631,6.5583,6.5596,6.5617,6.5647,6.5649,6.5667,6.5688,6.5691,6.567,6.5711,6.572,6.5772,6.5802,6.5748,6.5752,6.5909,6.5912,6.5915,6.5948,0,0,0,0,0,0,6.551,6.5526,6.555,6.5584,6.5599,6.5679,6.5649,6.5652,6.5675,6.5672,6.5702,6.5706,6.571,6.5766,6.5776,6.5806,6.5755,6.5907,6.5911,6.5914,6.5945,6.5952,6.5959,0,0,0,0,0,6.5505,6.5555,6.5552,6.5564,6.563,6.5681,6.5689,6.5696,6.5677,6.5701,6.5716,6.5705,6.5797,6.5772,6.5783,6.5814,6.5905,6.591,6.5914,6.5942,6.5951,6.5958,0,0,0,0,0,0,6.552,6.5559,6.5556,6.5619,6.5647,6.5678,6.5709,6.5705,6.5737,6.5733,6.5737,6.5744,6.5798,6.5811,6.5782,6.5876,6.5848,6.5855,6.5865,6.5874,6.5881,6.5876,6.5758,0,0,0,0,0,6.5531,6.5572,6.5602,6.5654,6.5669,6.5687,6.5709,6.5712,6.5741,6.5751,6.5769,6.5795,6.583,6.5853,6.5886,6.5947,6.5953,6.5974,6.5981,6.5987,6.5992,6.6027,6.6037,6.5932,6.5932,6.5931,0,0,6.5553,6.558,6.5604,6.5658,6.5681,6.5721,6.5697,6.5739,6.5768,6.5757,6.5809,6.5823,6.5852,6.591,6.5936,6.5922,6.6023,6.5993,6.5997,6.6,6.6033,6.6042,6.6051,6.5935,6.5934,6.5934,0,0,6.5615,6.5639,6.5686,6.571,6.5746,6.5758,6.5769,6.5802,6.5813,6.5866,6.5859,6.5892,6.5952,6.5973,6.5992,6.6065,6.6056,6.6075,6.6111,6.6145,6.6153,6.616,6.6187,6.6196,6.6081,6.6081,6.6081,0,6.5637,6.5699,6.571,6.5755,6.5779,6.5774,6.5821,6.5843,6.5886,6.5902,6.5887,6.5964,6.5983,6.6046,6.6065,6.608,6.6092,6.6072,6.6152,6.6159,6.6166,6.6191,6.6201,6.6083,6.6083,6.6083,6.6083,0,6.5725,6.5769,6.5802,6.5849,6.5877,6.5922,6.5938,6.5964,6.5966,6.5979,6.6033,6.6056,6.6095,6.611,6.611,6.6174,6.6165,6.6151,6.6123,6.6178,6.6202,6.6212,6.6087,6.6086,6.6085,6.6085,0,0,6.5795,6.5851,6.5863,6.5885,6.5925,6.5958,6.6003,6.6045,6.6067,6.6097,6.6135,6.6187,6.6176,6.6197,6.62,6.6229,6.6287,6.6212,6.6213,6.6225,6.6359,6.6369,6.6381,6.6282,6.6284,6.6285,6.6357,0,6.5861,6.5945,6.5957,6.6029,6.607,6.6068,6.6107,6.6135,6.6149,6.6183,6.6197,6.6235,6.6217,6.623,6.6259,6.6274,6.6314,6.6269,6.6315,6.6317,6.6308,6.6393,6.6404,6.647,6.6366,6.6368,6.6369,0,6.5948,6.5986,6.6064,6.6102,6.6119,6.6154,6.6195,6.6228,6.626,6.6268,6.6294,6.6294,6.6339,6.631,6.6372,6.6342,6.6361,6.6372,6.6374,6.6378,6.6346,6.6399,6.6491,6.6501,6.6384,6.6382,6.6381,0,6.5992,6.6062,6.6118,6.6137,6.6182,6.6208,6.6227,6.6257,6.6282,6.6316,6.6333,6.637,6.639,6.6419,6.6428,6.6407,6.649,6.6462,6.6497,6.6497,6.6514,6.6513,6.661,6.6527,6.6527,6.6527,6.6526,0,6.6064,6.6111,6.614,6.6174,6.6228,6.6241,6.6292,6.631,6.6338,6.6375,6.6374,6.6407,6.6418,6.6454,6.6461,6.6512,6.652,6.6527,6.6528,6.6527,6.6527,6.654,6.6535,6.6529,6.6529,6.6528,6.6528,0,6.6122,6.6142,6.6204,6.6244,6.6255,6.6292,6.6325,6.6357,6.6372,6.6419,6.643,6.6452,6.6494,6.6507,6.6556,6.6561,6.6621,6.6618,6.6611,6.6611,6.6646,6.6642,6.6755,6.677,6.6677,6.6678,6.6679,0,6.6166,6.6204,6.6249,6.6276,6.6297,6.6339,6.6366,6.638,6.6408,6.6449,6.6476,6.6519,6.6553,6.662,6.6638,6.6676,6.6674,6.6711,6.6679,6.6678,6.6675,6.6673,6.6677,6.6716,6.6717,6.6718,6.6719,0,6.6243,6.6252,6.6293,6.6338,6.6371,6.6406,6.644,6.6461,6.648,6.651,6.6556,6.6583,6.6635,6.6677,6.6716,6.6733,6.6729,6.6729,6.6739,6.6738,6.6733,6.6737,6.6627,6.6726,6.6725,6.6725,6.6724,6.6724,6.6295,6.633,6.6368,6.6414,6.6442,6.6474,6.6508,6.6529,6.6568,6.6614,6.662,6.6668,6.6699,6.6753,6.6772,6.6809,6.6798,6.6812,6.6816,6.6819,6.6823,6.6728,6.6815,6.6815,6.6815,6.6815,6.6815,0,6.6372,6.6398,6.6441,6.6491,6.6526,6.6524,6.6561,6.6591,6.6635,6.6666,6.6702,6.6754,6.6795,6.6819,6.686,6.6884,6.6884,6.6895,6.6893,6.6897,6.683,6.6817,6.6895,6.6895,6.6895,6.6895,6.6895,6.6895,6.6417,6.6476,6.649,6.6562,6.6587,6.6638,6.666,6.6689,6.6715,6.6774,6.681,6.6827,6.6855,6.6898,6.6936,6.6941,6.6956,6.6969,6.6973,6.691,6.6901,6.6893,6.6882,6.6972,6.6972,6.7037,6.7038,6.7038]}]]